Погода Приморско-Ахтарск

Погода Приморско-Ахтарск : погода сейчас, прогноз погоды и архив. Всё, что Вы хотите узнать о погоде Приморско-Ахтарск!

Хотите узнать прогноз погоды Приморско-Ахтарск? Тогда Вам сюда: Погода Приморско-Ахтарск

Поиск расширенной информации на нашем сайте:

Другие новости

Новости СМИ2

Главная страница сайта

Новости сайта

03.07.2017

Напоминаем, что на нашем специализированном сайте Метеоцентр.Азия вы можете получить высокодетализированные автоматические прогнозы погоды по пунктам России, СНГ и мира в авиационном формате (включающие направление и скорость ветра, видимость, явления погоды, количество и форму облачности, нижнюю и верхнюю границу облачности).

Рекомендуем: Увеличение продаж цена: как правильно применять вилку цен для увеличения продаж.

Погода Приморско-Ахтарск - сегодня

Время (UTC), дата Ветер
(°,м/с) 
Видим.   Явления Облачность Т
(°С)
Тd
(°С)
f(%) Тe
(°С)
Pmin
(гПа)
dP
(гПа)
Po
(мм)
O2
(г/м3)
Тmin Tmax R s Состояние
почвы
00 18.08.17 080 (В) 10 км    ясно 
+25.8 +9 35 +26  1011.4  0.9  758  278           
03 18.08.17 080 (В) 10 км    10/0 средняя, верхняя 
[Ac trans|Ci fib]
+24.3 +10 40 +25  1012.6  1.2  759  279  +24.2        сухая 
06 18.08.17 090 (В) 6-10{11}  10 км    10/0 верхняя 
[Ci fib]
+27.6 +10 33 +29  1013.9  1.3  760  276  +24.2         
09 18.08.17 080 (В) 5-10{14}  10 км    10/0 средняя, верхняя 
[Ac trans|Ci fib]
+31.9 +6.6 21 +32  1013.8  0.1  760  273           
12 18.08.17 090 (В) 5-11{14}  10 км    10/0 средняя, верхняя 
[Ac trans|Ci fib]
+33.7 +3.1 15 +34  1013.8  0.1  760  272           
15 18.08.17 070 (В) 3{13}  10 км    10/0 средняя, верхняя 
[Ac trans|Ci fib]
+32.2 +2.1 15 +32  1013.2  -0.5  760  274    +33.9       
18 18.08.17 тихо ()   10 км    10/5 600 м средняя, верхняя 
[Cu med, cong|Ac trans|Ci fib]
+24.1 +10.8 43 +26  1014.3  760  280           
21 18.08.17 050 (СВ) 10 км    ясно 
+23.9 +7.2 34 +24  1014.6  0.3  761  281           
00 19.08.17 070 (В) 10 км    ясно 
+22.8 +11.1 48 +25  1014.6  761  281           
03 19.08.17 070 (В) 10 км    10/8 600 м средняя 
[Cu hum|Ac trans]
+22 +11.3 51 +25  1015.5  761  282  +21.5        сухая 
06 19.08.17 080 (В) 5-10{10}  10 км    8/0 средняя, верхняя 
[Ac trans|Ci fib]
+27 +9.7 34 +27  1016  0.5  762  278           
09 19.08.17 100 (В) 6-12{15}  10 км    8/3 600 м средняя, верхняя 
[Cu med, cong|Ac trans|Ci fib]
+31.1 +6.9 22 +31  1015.4  -0.6  761  274           
12 19.08.17 080 (В) 4-11{15}  10 км    10/4 600 м средняя, верхняя 
[Cu med, cong|Ac trans|Ci fib]
+33.6 +7 19 +34  1014.8  -0.6  761  272           
15 19.08.17 070 (В) 3{12}  10 км    10/0 средняя, верхняя 
[Ac lent|Ci fib]
+31.7 +7.5 22 +32  1014.2  -0.5  760  273    +33.9       
18 19.08.17 050 (СВ) 10 км    4/0 средняя 
[Ac trans]
+26.9 +7.8 30 +27  1014.8  0.5  761  278           
21 19.08.17 060 (СВ) 10 км    ясно 
+24.3 +5.7 30 +24  1014.5  0.5  761  281           
00 20.08.17 060 (СВ) 10 км    ясно 
+22.8 +5.3 32 +23  1014.3  0.1  760  282           
03 20.08.17 070 (В) 10 км    5/3 600 м средняя 
[Cu hum|Ac trans]
+21.5 +9.3 46 +22  1014.5  0.1  761  282  +21.5        сухая 
06 20.08.17 070 (В) 10 км    8/0 средняя, верхняя 
[Ac trans|Ci]
+27.3 +11.6 38 +30  1014.7  0.2  761  277           
09 20.08.17 080 (В) 5-10{11}  10 км    8/0 верхняя 
[Ci fib]
+32.7 +6.5 20 +33  1013.6  -1.1  760  272           
12 20.08.17 090 (В) 4{11}  10 км    8/5 600 м средняя 
[Cu hum|Ac trans]
+35 +7.1 18 +35  1012.4  -1.2  759  270           
15 20.08.17 070 (В) 4{11}  10 км    10/4 600 м средняя, верхняя 
[Cu med, cong|Ac trans|Ci fib]
+32.2 +6.7 20 +32  1011.8  -0.7  758  272    +35       
18 20.08.17 080 (В) 10 км    10/8 600 м верхняя 
[Cu med, cong|Ci fib]
+25.4 +9.9 38 +26  1012.6  0.8  759  278           
21 20.08.17 080 (В) 10 км    ясно 
+25.6 +8.7 34 +26  1011.7  -0.9  758  278           
00 21.08.17 080 (В) 10 км    ясно 
+23.5 +11.2 46 +26  1011.4  -0.3  758  279           
Время (UTC), дата Ветер
(°,м/с) 
Видим.   Явления Облачность Т
(°С)
Тd
(°С)
f(%) Тe
(°С)
Pmin
(гПа)
dP
(гПа)
Po
(мм)
O2
(г/м3)
Тmin Tmax R s Состояние
почвы

Для получения пояснительной информации подведите курсор к названию столбца.

ПОГОДА Приморско-Ахтарск - архив

Всё, что Вы хотите узнать о погоде Приморско-Ахтарск - удобно и подробно!

Выберите нужную дату (начиная с 1 января 2015* года) и нажмите кнопку "Найти".
Будут отображены архивные сводки погоды по пункту Приморско-Ахтарск, начиная с указанной даты.


Отображать данные в формате CSV (для использования в таблицах Excel)


Внимание! Наш архив погоды предназначен исключительно для личного некоммерческого использования в познавательных целях. Если Вам необходимы официальные справки о состоянии погоды (для производственных, юридических, коммерческих и т.п. целей), обращайтесь в органы Росгидромета.

*Примечание: данная дата относится к архиву по метеостанциям СССР (Россия, СНГ, Балтия).
Архив по метеостанциям Зарубежной Европы и Азии (кроме Китая) хранится 10 дней, по другим регионам земного шара (Китай, Африка, Америка, Австралия, Океания) - 1 день.

Приморско-Ахтарск - район местоположения метеостанции


Название, широта, долгота, высота метеостанции:
Приморско-Ахтарск 46°ш. 38.2°д. 5 м над ур. моря [Российская Федерация]

Дополнительная информация

В oтличие oт бoльшинства пoгoдных сайтoв мы публикуем пoдрoбную метеoинфoрмацию в детальнoм прoфессиoнальнoм фoрмате.

Характеристики температуры и влажнoсти вoздуха измеряются на высoте 2 м в тени вдали oт зданий и деревьев.
Скoрoсть ветра измеряется на высoте 10 м (на урoвне рoста челoвека скoрoсть ветра ниже в 1.5-2 раза). Если метеoстанция нахoдится в гoрoде или в лесу, тo скoрoсть ветра занижена на 2-4 м/с пo сравнению с oткрытым местoм. Скoрoсть ветра над акватoриями крупных рек и oзёр, а также на вершинах хoлмoв на 2-5 м/с выше, чем в oбычных услoвиях.
Атмoсфернoе давление в разных тoчках местнoсти мoжет значительнo oтличаться oт давления на метеoстанции, в зависимoсти oт услoвий рельефа (при пoдъёме на 10 м давление пoнижается примернo на 1 мм рт.ст.).